Cox Field
KPRX : now visible

Airfield :











YOU CAN JOIN US ON...

 
LOGIN :

Register | Disclaimer

   EN    FR    IT 

 









Legend :    VFR   Marginal VFR   IFR   Intensive IFR   Very Intensive IFR
Visi :
Ceiling :
>= 8 km
>= 3000ft
5 to 8 km
1000 to 3000 ft
1500m to 5 km
500 to 1000 ft
800 to 1500m
200 to 500 ft
< 800m
< 200 ft
Symbols :   Thunderstorms  Fog  Heavy snow  Heavy precipitations  Wind > 20 kt






- Airport Elevation : 547 ft


KPRX - Cox Field

CURRENT METAR :
  • 162056Z AUTO 17010KT 10SM FEW070 33/22 A2985 RMK AO2 SLP103 T03330217 56022

EXPIRED METARs :
  • 161956Z AUTO 17009G15KT 10SM CLR 33/22 A2987 RMK AO2 SLP109 T03330217
  • 161856Z AUTO 15007G15KT 10SM FEW048 33/22 A2990 RMK AO2 SLP118 T03280217
  • 161756Z AUTO 15009KT 10SM SCT046 32/22 A2992 RMK AO2 SLP126 T03220217 10328 20233 58007

TAF N/A
KZFW FIR / North America



MET'MAP, your aeronautical weather chart ! - Copyright ORBIFLY December 2007 - Disclaimer

ORBIFLY MET'MAP TEAM :

Programming & Development : Alexandra Zaïnal
Original concept : Baudouin d'Aumeries
Technical & hardware support : Manuel Goepfert
Assistance : Marc-Olivier Méhu




SOURCES & CREDITS :

   NOAA       Earth
Advisory